www.pogodaiklimat.ru

Погода и климат >> Архив погоды >> Австралия >> Южная Австралия >> Наллабор


ПОГОДА в Наллаборе

  • Прогноз погоды в Наллаборе
  • Монитор погоды в Наллаборе

АРХИВ ПОГОДЫ в Наллаборе

Время (UTC), дата Ветер
(напр.,м/с)
 
Видим.   Явления Облачность Т
(С)
Тd
(С)
f
(%)
Тe
(С)
Тes
(С)
Комфортность P
(гПа)
Po
(гПа)
Тmin
(С)
Tmax
(С)
R
(мм)
R24
(мм)
S
(см)
07 18.06 ЮВ 3 н/о н/о +13.8 +7.8 67 +13 +13 1027.1 1019.2
08 18.06 Ю 4 н/о 8/8 1500 м
[]
+12.4 +8.7 78 +11 +11 1027.2 1019.3
09 18.06 Ю 3 н/о н/о +9.8 +7.6 86 +7 +7 1027.3 1019.4
10 18.06 Ю 3 н/о н/о +10.2 +9.0 92 +8 +8 1027.5 1019.6
11 18.06 Ю 1 н/о 10/10 1500 м
[]
+10.6 +9.0 90 +10 +10 1027.9 1020.0
12 18.06 Ю 2 н/о н/о +10.7 +9.3 91 +9 +9 1027.7 1019.8
13 18.06 штиль 0 н/о н/о +10.4 +9.3 93 +10 +10 1027.7 1019.8
14 18.06 штиль 0 н/о 10/10 1500 м
[]
+11.5 +9.9 90 +11 +11 1027.6 1019.7 +16.0
15 18.06 З 2 н/о н/о +10.8 +9.9 94 +9 +9 1027.4 1019.5
16 18.06 С 2 н/о н/о +10.7 +9.9 95 +9 +9 1026.9 1019.0
17 18.06 штиль 0 н/о н/о +9.3 +8.5 95 +8 +8 1026.9 1019.0
18 18.06 С 5 н/о н/о +6.9 +6.8 99 +3 +3 1026.5 1018.6
19 18.06 ЮЗ 2 н/о н/о +8.2 +8.1 99 +6 +6 1026.5 1018.6
20 18.06 З 2 н/о 10/10 1500 м
[]
+8.9 +8.5 97 +7 +7 1026.6 1018.7
21 18.06 З 1 н/о н/о +8.6 +8.2 97 +9 +9 1026.8 1018.9
22 18.06 СЗ 2 н/о н/о +8.6 +8.5 99 +7 +7 1027.3 1019.4
23 18.06 С 3 н/о 10/10 1500 м
[]
+8.7 +8.6 99 +6 +6 1027.8 1019.9
00 19.06 С 3 н/о н/о +12.3 +7.6 73 +11 +11 1028.4 1020.5
01 19.06 С 5 н/о н/о +14.1 +4.7 53 +13 +13 1028.6 1020.7
02 19.06 С 4 н/о 10/10 1500 м
[]
+14.9 +3.4 46 +14 +14 1028.2 1020.3 +6.4
03 19.06 З 3 н/о н/о +15.2 +2.7 43 +15 +15 1027.3 1019.4
04 19.06 З 3 н/о н/о +15.1 +3.0 44 +15 +15 1026.4 1018.5
05 19.06 З 3 н/о 9/9 1500 м
[]
+15.2 +4.0 47 +15 +15 1025.6 1017.7
06 19.06 ЮЗ 3 н/о н/о +15.5 +3.0 43 +15 +15 1025.3 1017.4
07 19.06 Ю 5 н/о н/о +13.9 +4.5 53 +12 +12 1025.4 1017.5
08 19.06 Ю 4 н/о н/о +13.0 +4.9 58 +11 +11 1025.8 1017.9
09 19.06 Ю 3 н/о н/о +10.5 +4.6 67 +9 +9 1026.0 1018.1
10 19.06 ЮВ 3 н/о н/о +7.8 +3.3 73 +6 +6 1026.2 1018.3
11 19.06 Ю 3 н/о н/о +8.8 +3.4 69 +6 +6 1026.6 1018.7
12 19.06 ЮВ 3 н/о н/о +8.6 +3.6 71 +7 +7 1026.6 1018.7
13 19.06 ЮВ 2 н/о н/о +5.9 +2.9 81 +4 +4 1026.4 1018.5
14 19.06 СВ 3 н/о н/о +3.8 +2.0 88 0 0 1026.3 1018.4 +16.6
15 19.06 С 4 н/о н/о +3.2 +2.3 94 -2 -2 1026.3 1018.4
16 19.06 С 5 н/о н/о +3.0 +2.9 99 -2 -2 1026.6 1018.7
17 19.06 С 4 н/о н/о +3.1 +3.0 99 -2 -2 1026.4 1018.5
18 19.06 С 4 н/о н/о +2.0 +1.9 99 -3 -3 1026.5 1018.6
19 19.06 С 4 н/о н/о +1.2 +1.1 99 -4 -4 1026.6 1018.7
20 19.06 С 4 н/о н/о +1.9 +1.8 99 -3 -3 1026.7 1018.8
21 19.06 С 5 н/о н/о +1.9 +1.8 99 -4 -4 1026.8 1018.9
22 19.06 С 4 н/о н/о +3.0 +2.9 99 -2 -2 1027.2 1019.3
23 19.06 С 4 н/о н/о +4.0 +3.9 99 -1 -1 1027.7 1019.8
00 20.06 С 5 н/о н/о +8.5 +6.1 85 +5 +5 1028.2 1020.3
01 20.06 С 5 н/о н/о +12.9 +4.8 58 +11 +11 1028.0 1020.1
02 20.06 СЗ 4 н/о н/о +15.0 +2.5 43 +14 +14 1027.6 1019.7 +1.1
03 20.06 З 4 н/о н/о +15.5 +1.6 39 +15 +15 1027.1 1019.2
04 20.06 З 5 н/о н/о +16.0 +0.6 35 +15 +15 1026.1 1018.2
05 20.06 З 3 н/о н/о +17.0 +1.4 35 +17 +17 1025.5 1017.6
06 20.06 Ю 6 н/о н/о +16.3 +3.4 42 +15 +15 1025.3 1017.4
07 20.06 Ю 7 н/о н/о +15.5 +3.9 46 +14 +14 1025.6 1017.7
08 20.06 Ю 4 н/о н/о +13.7 +4.6 54 +12 +12 1026.0 1018.1
09 20.06 Ю 4 н/о н/о +9.7 +4.1 68 +7 +7 1026.2 1018.3
10 20.06 Ю 3 н/о н/о +8.7 +4.3 74 +6 +6 1026.5 1018.6
11 20.06 Ю 5 н/о н/о +8.7 +5.6 81 +5 +5 1026.6 1018.7
12 20.06 Ю 5 н/о н/о +7.7 +5.2 84 +4 +4 1027.0 1019.1
13 20.06 Ю 5 н/о н/о +7.8 +6.3 90 +4 +4 1027.3 1019.4
14 20.06 С 2 н/о н/о +5.3 +4.3 93 +3 +3 1027.2 1019.3 +17.4
15 20.06 С 4 н/о н/о +3.7 +3.3 97 -1 -1 1027.0 1019.1
16 20.06 СЗ 4 н/о н/о +3.7 +3.3 97 -1 -1 1026.7 1018.8
17 20.06 СЗ 2 н/о н/о +4.0 +3.9 99 +1 +1 1026.7 1018.8
18 20.06 СЗ 3 н/о н/о +2.7 +2.6 99 -2 -2 1026.7 1018.8
19 20.06 С 4 н/о н/о +2.1 +2.0 99 -3 -3 1026.5 1018.6
20 20.06 С 4 н/о н/о +1.7 +1.6 99 -4 -4 1026.6 1018.7
21 20.06 С 4 н/о н/о +1.4 +1.3 99 -4 -4 1027.0 1019.1
22 20.06 С 5 н/о н/о +1.5 +1.4 99 -4 -4 1027.4 1019.5
23 20.06 С 4 н/о н/о +3.8 +3.7 99 -1 -1 1027.7 1019.8
00 21.06 С 3 н/о н/о +7.7 +6.8 94 +5 +5 1028.2 1020.3
01 21.06 СВ 5 н/о н/о +13.1 +8.4 73 +11 +11 1028.4 1020.5
02 21.06 С 5 н/о н/о +15.6 +6.3 54 +14 +14 1028.4 1020.5 +0.8
03 21.06 СВ 4 н/о н/о +16.7 +2.0 37 +16 +16 1027.7 1019.8
04 21.06 С 4 н/о н/о +17.2 +0.4 32 +17 +17 1026.8 1018.9
05 21.06 СВ 3 н/о н/о +17.8 0.0 30 +18 +18 1025.9 1018.0
06 21.06 С 3 н/о н/о +17.8 -0.9 28 +18 +18 1025.7 1017.8
07 21.06 СВ 4 н/о н/о +17.5 -1.2 28 +17 +17 1025.6 1017.7
08 21.06 СВ 3 н/о н/о +14.9 +0.7 38 +15 +15 1025.8 1017.9
09 21.06 ЮВ 4 н/о н/о +9.3 +3.7 68 +7 +7 1026.3 1018.4
10 21.06 В 5 н/о н/о +7.9 +4.8 81 +4 +4 1026.8 1018.9
11 21.06 В 5 н/о н/о +7.0 +4.5 84 +3 +3 1027.3 1019.4
12 21.06 В 5 н/о н/о +7.5 +6.8 95 +4 +4 1027.6 1019.7
13 21.06 В 5 н/о н/о +7.9 +7.8 99 +4 +4 1027.4 1019.5
14 21.06 В 5 н/о н/о +6.9 +6.8 99 +3 +3 1026.6 1018.7 +18.7
15 21.06 В 3 н/о н/о +4.7 +4.6 99 +1 +1 1026.6 1018.7
16 21.06 СВ 5 н/о н/о +4.8 +4.8 100 0 0 1025.7 1017.8
17 21.06 СВ 4 н/о н/о +3.5 +3.5 100 -1 -1 1026.2 1018.3
18 21.06 СВ 5 н/о н/о +3.5 +3.5 100 -2 -2 1025.6 1017.7
19 21.06 СВ 5 н/о н/о +3.3 +3.2 99 -2 -2 1025.7 1017.8
20 21.06 СВ 4 н/о 1/0
[]
+2.1 +1.8 98 -3 -3 1025.9 1018.0
21 21.06 СВ 5 н/о н/о +1.3 +0.9 97 -5 -5 1026.1 1018.2
22 21.06 СВ 5 н/о н/о +0.5 -0.4 94 -5 -5 1026.1 1018.2
23 21.06 СВ 5 н/о 1/0
[]
+1.5 +0.2 91 -4 -4 1027.1 1019.2
00 22.06 СВ 6 н/о н/о +8.3 +1.9 64 +5 +5 1027.6 1019.7
01 22.06 С 8 н/о н/о +12.6 +0.7 44 +10 +10 1027.6 1019.7
02 22.06 С 9 н/о 9/0
[]
+15.4 -0.4 34 +14 +14 1027.0 1019.1 +0.6
03 22.06 С 8 н/о н/о +16.5 -0.7 31 +15 +15 1025.9 1018.0
04 22.06 С 8 н/о н/о +16.5 -1.1 30 +15 +15 1025.2 1017.3
05 22.06 С 8 н/о 10/0
[]
+16.7 -1.4 29 +15 +15 1024.1 1016.2
06 22.06 С 7 н/о н/о +16.4 -2.1 28 +15 +15 1024.5 1016.6
07 22.06 С 5 н/о н/о +15.5 -1.5 31 +14 +14 1024.3 1016.4
08 22.06 СВ 5 н/о 1/0
[]
+14.8 -1.7 32 +14 +14 1024.7 1016.8
09 22.06 СВ 5 н/о н/о +9.1 -1.3 48 +6 +6 1024.9 1017.0
10 22.06 В 6 н/о н/о +7.5 -0.9 55 +4 +4 1025.1 1017.2
11 22.06 СВ 5 н/о н/о +7.4 -1.0 55 +4 +4 1025.1 1017.2
12 22.06 СВ 5 н/о н/о +6.0 -1.6 58 +2 +2 1025.4 1017.5
13 22.06 СВ 6 н/о н/о +7.0 -1.2 56 +3 +3 1025.4 1017.5
14 22.06 СВ 6 н/о н/о +6.5 -1.4 57 +2 +2 1025.4 1017.5 +18.1
15 22.06 СВ 5 н/о н/о +5.4 -1.5 61 +1 +1 1025.2 1017.3
16 22.06 СВ 5 н/о н/о +5.3 -1.6 61 +1 +1 1025.4 1017.5
17 22.06 СВ 6 н/о н/о +5.9 -1.5 59 +2 +2 1026.0 1018.1
18 22.06 СВ 6 н/о н/о +5.4 -1.7 60 +1 +1 1025.8 1017.9
19 22.06 СВ 6 н/о н/о +5.4 -2.0 59 +1 +1 1025.5 1017.6
20 22.06 СВ 7 н/о н/о +5.1 -2.2 59 0 0 1025.1 1017.2
21 22.06 СВ 7 н/о н/о +5.6 -2.2 57 +1 +1 1025.6 1017.7
22 22.06 СВ 5 н/о н/о +3.1 -2.6 66 -2 -2 1026.5 1018.6
23 22.06 СВ 6 н/о н/о +4.7 -1.9 62 -0 -0 1026.6 1018.7
00 23.06 СВ 7 н/о н/о +9.2 -1.2 48 +6 +6 1026.9 1019.0
01 23.06 С 10 н/о н/о +13.3 -1.4 36 +11 +11 1026.8 1018.9
02 23.06 С 10 н/о н/о +15.3 -1.7 31 +13 +13 1026.6 1018.7 +2.9
03 23.06 С 10 н/о н/о +16.9 -1.2 29 +15 +15 1025.1 1017.2
04 23.06 С 10 н/о н/о +17.5 -2.2 26 +16 +16 1023.8 1015.9
05 23.06 С 9 н/о н/о +18.2 -2.1 25 +17 +17 1023.1 1015.2
06 23.06 С 9 н/о н/о +17.6 -2.1 26 +16 +16 1022.7 1014.8
07 23.06 СВ 8 н/о н/о +17.3 -2.4 26 +16 +16 1022.2 1014.3
08 23.06 СВ 6 н/о 3/0
[]
+15.7 -2.3 29 +14 +14 1022.2 1014.3
09 23.06 СВ 5 н/о н/о +13.4 -2.9 32 +12 +12 1022.4 1014.5
10 23.06 СВ 6 н/о н/о +12.9 -2.6 34 +11 +11 1022.6 1014.7
11 23.06 СВ 5 н/о 1/0
[]
+11.9 -2.3 37 +10 +10 1023.2 1015.3
12 23.06 СВ 6 н/о н/о +11.4 -2.0 39 +9 +9 1022.8 1014.9
13 23.06 СВ 6 н/о н/о +10.6 -1.8 42 +8 +8 1022.7 1014.8
14 23.06 СВ 7 н/о 9/0
[]
+10.7 -1.7 42 +8 +8 1022.7 1014.8 +19.0
15 23.06 СВ 8 н/о н/о +11.5 -1.6 40 +9 +9 1022.7 1014.8
16 23.06 С 8 н/о н/о +11.7 -1.8 39 +9 +9 1022.3 1014.4
17 23.06 С 8 н/о 9/0
[]
+11.6 -1.9 39 +9 +9 1022.2 1014.3
18 23.06 С 8 н/о н/о +12.0 -1.9 38 +9 +9 1021.8 1013.9
19 23.06 С 9 н/о н/о +12.0 -0.8 41 +9 +9 1021.4 1013.5
20 23.06 С 8 н/о 10/0 2000 м
[]
+11.3 +1.0 49 +8 +8 1021.5 1013.6
21 23.06 С 8 н/о н/о +11.3 +1.0 49 +8 +8 1021.0 1013.1
22 23.06 С 7 н/о н/о +11.4 +0.2 46 +9 +9 1022.5 1014.6
23 23.06 С 9 н/о 10/0
[]
+11.7 -0.8 42 +9 +9 1022.6 1014.7
00 24.06 С 9 н/о н/о +12.4 -0.8 40 +10 +10 1022.8 1014.9
01 24.06 С 8 н/о н/о +10.3 +4.2 66 +7 +7 1023.1 1015.2
02 24.06 С 9 н/о в посл. час дождь {туман} 10/10 1500 м
[]
+10.2 +6.0 75 +6 +6 1021.6 1013.7 +9.2
03 24.06 С 10 н/о н/о +12.3 +4.8 60 +9 +9 1020.7 1012.8
04 24.06 С 11 н/о н/о +15.0 +4.1 48 +13 +13 1019.9 1012.0
05 24.06 С 11 н/о {туман} 1/0
[]
+17.6 +2.8 37 +16 +16 1018.8 1011.0 1
06 24.06 С 10 н/о н/о +18.0 +1.5 33 +17 +17 1019.0 1011.2
07 24.06 С 7 н/о н/о +18.3 +2.2 34 +18 +18 1019.7 1011.8
08 24.06 С 6 н/о 8/0
[]
+15.9 +0.9 36 +15 +15 1020.3 1012.4
09 24.06 З 6 н/о н/о +15.9 +0.5 35 +15 +15 1021.4 1013.5
10 24.06 С 5 н/о н/о +12.3 +1.0 46 +10 +10 1022.5 1014.6
11 24.06 С 2 н/о н/о +11.7 +0.8 47 +11 +11 1023.4 1015.5
12 24.06 С 4 н/о н/о +8.9 +1.1 58 +6 +6 1024.1 1016.2
13 24.06 С 2 н/о н/о +11.6 +0.1 45 +11 +11 1024.5 1016.6
14 24.06 СВ 3 н/о 10/10 1000 м
[]
+6.8 0.0 62 +4 +4 1024.8 1016.9 +18.6
15 24.06 С 4 н/о н/о +5.7 +0.1 67 +2 +2 1024.9 1017.0
16 24.06 С 4 н/о н/о +5.0 +0.2 71 +1 +1 1024.7 1016.8
17 24.06 С 4 н/о н/о +3.7 -0.3 75 -1 -1 1024.7 1016.8
18 24.06 С 4 н/о н/о +4.3 -0.3 72 0 0 1024.8 1016.9
19 24.06 С 3 н/о н/о +2.5 -0.8 79 -2 -2 1025.1 1017.2
20 24.06 СЗ 4 н/о 1/1 <50 м
[]
+3.4 -0.2 77 -1 -1 1025.1 1017.2
21 24.06 З 4 н/о н/о +3.1 +0.8 85 -1 -1 1025.5 1017.6
22 24.06 З 4 н/о н/о +4.2 +4.1 99 -1 -1 1026.1 1018.2
23 24.06 С 4 100 м 10/10 <50 м
[]
+5.4 +5.4 100 +1 +1 1027.2 1019.3 1
00 25.06 С 2 н/о н/о +8.1 +8.1 100 +6 +6 1027.5 1019.6
01 25.06 С 3 н/о н/о +12.3 +12.3 100 +11 +11 1028.1 1020.2
02 25.06 ЮЗ 2 н/о н/о +15.8 +12.7 82 +16 +16 1027.8 1019.9 +2.5
03 25.06 В 2 н/о н/о +17.9 +11.2 65 +18 +18 1027.1 1019.2
04 25.06 ЮВ 3 н/о н/о +17.8 +8.9 56 +18 +18 1026.0 1018.1
05 25.06 ЮВ 4 н/о 3/3 1000 м
[]
+17.6 +10.0 61 +17 +17 1025.6 1017.7
06 25.06 ЮВ 5 н/о н/о +18.0 +9.9 59 +18 +18 1025.6 1017.7

 

Местоположение метеостанции Наллабор (Южная Австралия, Австралия): широта -31.45 долгота 130.90 высота над уровнем моря 65 м.

В архиве по умолчанию представлена погода в Наллаборе за последнюю неделю. Архивные данные за месяц целиком и за предыдущие месяцы, начиная с января 2011 года, Вы можете получить, выбрав интересующий диапазон дат из раскрывающегося списка и нажав кнопку "Ввод!".


*Определитесь, кто Вы:
робот инопланетянин человек

Внимание! Время в таблицах - всемирное. Для получения местного времени необходимо прибавить поправку, которая равна 9.5 ч.

Смотрите также архив погоды в соседних городах и на ближайших метеорологических станциях:

Погода в Евкле (Западная Австралия, Австралия) (193 км)
Погода в Форресте (Западная Австралия, Австралия) (274 км)
Погода в Сидуне (Южная Австралия, Австралия) (275 км)
Погода в Ред Рокс Пойнт (Западная Австралия, Австралия) (329 км)
Погода в Таркуле (Южная Австралия, Австралия) (360 км)
Погода в Миннипа Пирса (Южная Австралия, Австралия) (429 км)
Погода в Кубер-Педи (Южная Австралия, Австралия) (454 км)
Погода в Уудинне (Южная Австралия, Австралия) (463 км)
Погода в Колте (Южная Австралия, Австралия) (529 км)
Погода в Камминсе (Южная Австралия, Австралия) (547 км)

Пояснения к столбцам:

Ветер - указаны скорость ветра в м/с - средняя за 10 мин, порывы в срок и между сроками (в фигурных скобках) и направление, откуда дует ветер: С - северный, СВ - северо-восточный, В - восточный, ЮВ - юго-восточный, Ю - южный, ЮЗ - юго-западный, З - западный, СЗ - северо-западный.
Видимость - горизонтальная дальность видимости в метрах или километрах. При видимости от 1 до 10 км при отсутствии осадков обычно наблюдается дымка, при ухудшении видимости до 1 км и менее - туман. В сухую погоду видимость может ухудшаться дымом, пылью или мглою.
Явления - указаны атмосферные явления, наблюдавшиеся в срок или в последний час перед сроком; фигурными скобками обозначены явления, наблюдавшиеся между сроками (за 1-3 часа до срока); квадратными скобками обозначены град или гололедные отложения с указанием их диаметра в мм.
Облачность - указаны через наклонную черту общая и нижняя облачность в баллах и высота нижней границы облаков в метрах; квадратными скобками обозначены формы облаков: Ci - перистые, Cs - перисто-слоистые, Cc - перисто-кучевые, Ac - высококучевые, As - высокослоистые, Sc - слоисто-кучевые, Ns - слоисто-дождевые, Cu - кучевые, Cb - кучево-дождевые. Подробнее классификацию облаков см. в Атласе облаков (PDF).
T - Температура воздуха - температура, измеренная на высоте 2 м над землей.
Td - Температура точки росы - температура, при понижении до которой содержащийся в воздухе водяной пар достигнет насыщения.
f - Относительная влажность воздуха - влажноcть воздуха, измеренная на высоте 2 м над землей.
Te - Эффективная температура - температура, которую ощущает одетый по сезону человек в тени. Характеристика душности погоды. При расчете учитывается влияние влажности воздуха и скорости ветра на теплоощущения человека.
Tes - Эффективная температура на солнце - температура, которую ощущает человек, с поправкой на солнечный нагрев. Характеристика знойности погоды. Зависит от высоты солнца над горизонтом, облачности и скорости ветра. Ночью, в пасмурную погоду, а также при ветре 12 м/с и более поправка равна нулю.
P - Атмосферное давление - приведенное к уровню моря атмосферное давление.
Po - Атмосферное давление - измеренное на уровне метеостанции атмосферное давление.
Tmin - Минимальная температура - минимум температуры воздуха на высоте 2 м над землей.
Tmax - Максимальная температура - максимум температуры воздуха на высоте 2 м над землей.
R - Количество осадков - Количество выпавших осадков за период времени, мм. При наведении курсора мыши на число - период времени, за который выпало указанное количество осадков.
R24 - Количество осадков - Количество выпавших осадков за 24 часа, мм.
S - Снежный покров - Высота снежного покрова, см. При наведении курсора мыши на число - состояние снежного покрова и степень покрытия местности в баллах.